Find Starlink 36708

NORAD ID: 67713 Int'l Des: 2026-025 Owner: SPXS Country: US Constellation: starlink operational
LEOCIRCULARRETROGRADE

現在のビュー

3D地球を読み込み中...

Starlink 36708について

説明を読み込み中...

次回通過

Passes for default location (London). Set your location on the main map for personalized predictions.

高度履歴

Loading altitude history...

軌道要素

1 67713U 26025W 26149.77680464 .00025938 00000-0 80293-3 0 9995
2 67713 97.2863 260.4753 0000618 70.0660 290.0649 15.33448687 18381
Epoch: May 29, 2026 • Age: 20 hours

現在のステータス

高度 469.6 km
速度 7.63 km/s
衛星直下点 -7.05°S, 149.5°E
打ち上げ日 Feb 7, 2026
運用期間 0.3 years
タイプ internet

技術仕様

分類 Payload
質量 575.00 kg
乾燥質量 530.00 kg
総質量 575.00 kg
長さ 0.30 m
直径 4.10 m
スパン 29.00 m
形状 Box + pan
製造者 SPXS
バスタイプ Starlink V2MO
フェーズステータス In Orbit
所有者/国 SPXS/US

Most Searched